Sentry

operational
NORAD ID: 59140 Int'l Des: 2024-043 Owner: QUSP Country: US
LEOCIRCULARRETROGRADE

Über Sentry

Beschreibung wird geladen...

Live-Position

3D-Globus wird geladen...

Nächste Überflüge

Höhenverlauf

Altitude vs Time

uPlot chart will show altitude changes over time

Zweizeiliger Elementsatz

1 59140U 24043AU 26062.41703895 .00320468 39758-4 10980-2 0 9994
2 59140 97.5306 216.0724 0004711 246.6969 113.3808 15.89658077112068
Epoch: 3. März 2026 • Age: 34 hours

Aktueller Status

Höhe 325.5 km
Geschwindigkeit 7.71 km/s
Subsatellitenpunkt -71.18°S, 70.38°W
Startdatum 4. März 2024
Alter 1.9 years
Typ other

Technische Details

Klassifizierung Payload
Masse 10.00 kg
Trockenmasse 10.00 kg
Gesamtmasse 10.00 kg
Länge 0.30 m
Durchmesser 0.20 m
Spannweite 0.30 m
Form Box+2 pan
Hersteller QUSP
Bus-Typ Cubesat 6U
Phasenstatus In Orbit
Besitzer/Staat QUSP/US

Große Konstellationen

Loading constellations...